ROSEYCUBESAT-1 (56212 NORAD) Tracking and Keplerian Element Data

This shows tracking and keplerian element data for the satellite.

Feedback or suggestion? Click here.




ElementValue
Catalog56212
NameROSEYCUBESAT-1
Epoch Orbit2094
Epoch Day238.69694456
Epoch Year2023
RAAN133.2005
Inclination97.3989
Eccentricity0.0016304
Argument of Perigee118.518
Mean Anonmoly241.7704
Mean Motion15.27754936
Decay Rate0.0001987
L11 56212U 23054AL 23238.69694456 .00019870 00000+0 73161-3 0 9992
L22 56212 97.3989 133.2005 0016304 118.5180 241.7704 15.27754936 20944



Live tracking and technical data element details for ROSEYCUBESAT-1 (NORAD 56212). ROSEYCUBESAT-1 can be tracked NOW for your location showing map with azimuth and elevation plus other details from your city location.







IsCatalogInMostPopularTable: catalog: 56212, numindb: 18
Update: records affected: 1



GetName: 56212 ROSEYCUBESAT-1

Hit Count: updated at: Thu, 28 Sep 2023 05:27:11 GMT